Time,TemperatureF,DewpointF,PressureIn,WindDirection,WindDirectionDegrees,WindSpeedMPH,WindSpeedGustMPH,Humidity,HourlyPrecipIn,Conditions,Clouds,dailyrainin,SoftwareType,DateUTC
2013-02-21 00:00:00,20.3,13.3,29.21,NNW,341,7.9,10.7,73,0.00,,,0.00,proprietary,2013-02-21 05:00:00,
2013-02-21 00:03:00,20.3,13.2,29.21,NNW,331,5.6,6.7,73,0.00,,,0.00,proprietary,2013-02-21 05:03:00,
2013-02-21 00:04:00,20.3,13.3,29.21,NW,304,11.0,14.1,73,0.00,,,0.00,proprietary,2013-02-21 05:04:00,
2013-02-21 00:07:00,20.3,13.2,29.21,NW,324,10.2,13.3,73,0.00,,,0.00,proprietary,2013-02-21 05:07:00,
2013-02-21 00:12:00,20.4,13.2,29.21,NW,325,9.9,12.4,73,0.00,,,0.00,proprietary,2013-02-21 05:12:00,
2013-02-21 00:17:00,20.4,13.1,29.21,NW,310,7.1,9.1,72,0.00,,,0.00,proprietary,2013-02-21 05:17:00,
2013-02-21 00:22:00,20.3,12.9,29.21,NW,312,9.4,13.6,72,0.00,,,0.00,proprietary,2013-02-21 05:22:00,
2013-02-21 00:27:00,20.4,12.9,29.21,NNW,333,9.2,13.7,72,0.00,,,0.00,proprietary,2013-02-21 05:27:00,
2013-02-21 00:32:00,20.4,13.0,29.21,NW,311,7.3,8.9,72,0.00,,,0.00,proprietary,2013-02-21 05:32:00,
2013-02-21 00:37:00,20.3,12.8,29.21,NNW,344,8.4,10.6,72,0.00,,,0.00,proprietary,2013-02-21 05:37:00,
2013-02-21 00:42:00,20.3,12.8,29.21,NW,323,5.3,7.3,72,0.00,,,0.00,proprietary,2013-02-21 05:42:00,
2013-02-21 00:47:00,20.3,12.9,29.21,NW,324,5.2,6.0,72,0.00,,,0.00,proprietary,2013-02-21 05:47:00,
2013-02-21 00:52:00,20.3,13.0,29.21,NNW,328,5.1,6.1,72,0.00,,,0.00,proprietary,2013-02-21 05:52:00,
2013-02-21 00:57:00,20.3,13.1,29.21,NW,325,6.0,9.4,73,0.00,,,0.00,proprietary,2013-02-21 05:57:00,
2013-02-21 01:03:00,20.2,13.2,29.21,NNW,332,4.4,5.8,73,0.00,,,0.00,proprietary,2013-02-21 06:03:00,
2013-02-21 01:08:00,20.2,13.4,29.22,NNW,329,7.3,8.9,74,0.00,,,0.00,proprietary,2013-02-21 06:08:00,
2013-02-21 01:14:00,20.1,13.3,29.22,NW,325,10.5,13.2,74,0.00,,,0.00,proprietary,2013-02-21 06:14:00,
2013-02-21 01:19:00,20.1,13.4,29.22,NNW,328,5.9,8.6,74,0.00,,,0.00,proprietary,2013-02-21 06:19:00,
2013-02-21 01:24:00,20.1,13.3,29.22,NNW,333,7.2,8.9,74,0.00,,,0.00,proprietary,2013-02-21 06:24:00,
2013-02-21 01:29:00,20.1,13.2,29.22,NW,313,10.4,13.4,73,0.00,,,0.00,proprietary,2013-02-21 06:29:00,
2013-02-21 01:34:00,20.1,13.0,29.22,NNW,330,6.1,8.3,73,0.00,,,0.00,proprietary,2013-02-21 06:34:00,
2013-02-21 01:40:00,20.2,12.9,29.22,NW,325,7.8,11.1,72,0.00,,,0.00,proprietary,2013-02-21 06:40:00,
2013-02-21 01:46:00,20.2,13.0,29.23,NW,316,5.6,8.1,73,0.00,,,0.00,proprietary,2013-02-21 06:46:00,
2013-02-21 01:51:00,20.2,13.1,29.23,NW,315,7.7,10.5,73,0.00,,,0.00,proprietary,2013-02-21 06:51:00,
2013-02-21 01:56:00,20.2,13.1,29.23,WNW,300,8.3,10.1,73,0.00,,,0.00,proprietary,2013-02-21 06:56:00,
2013-02-21 02:01:00,20.2,13.2,29.23,NW,325,6.6,10.6,73,0.00,,,0.00,proprietary,2013-02-21 07:01:00,
2013-02-21 02:07:00,20.2,13.3,29.23,NW,311,9.7,12.3,74,0.00,,,0.00,proprietary,2013-02-21 07:07:00,
2013-02-21 02:13:00,20.2,13.4,29.24,NW,318,7.7,9.7,74,0.00,,,0.00,proprietary,2013-02-21 07:13:00,
2013-02-21 02:18:00,20.1,13.5,29.24,NNW,334,9.4,12.6,74,0.00,,,0.00,proprietary,2013-02-21 07:18:00,
2013-02-21 02:23:00,20.1,13.5,29.24,NW,317,4.5,5.5,75,0.00,,,0.00,proprietary,2013-02-21 07:23:00,
2013-02-21 02:28:00,20.0,13.5,29.24,WNW,301,6.1,11.3,75,0.00,,,0.00,proprietary,2013-02-21 07:28:00,
2013-02-21 02:33:00,20.1,13.5,29.24,NW,321,6.2,8.2,75,0.00,,,0.00,proprietary,2013-02-21 07:33:00,
2013-02-21 02:38:00,20.1,13.6,29.24,NNW,334,6.7,8.7,75,0.00,,,0.00,proprietary,2013-02-21 07:38:00,
2013-02-21 02:43:00,20.0,13.6,29.24,WNW,302,8.3,9.2,75,0.00,,,0.00,proprietary,2013-02-21 07:43:00,
2013-02-21 02:48:00,20.0,13.7,29.24,NW,320,8.2,9.4,75,0.00,,,0.00,proprietary,2013-02-21 07:48:00,
2013-02-21 02:53:00,20.0,13.7,29.24,NW,311,5.6,6.2,76,0.00,,,0.00,proprietary,2013-02-21 07:53:00,
2013-02-21 02:58:00,20.0,13.8,29.24,NW,307,6.7,8.2,76,0.00,,,0.00,proprietary,2013-02-21 07:58:00,
2013-02-21 03:03:00,20.0,13.7,29.24,NW,309,8.5,10.4,76,0.00,,,0.00,proprietary,2013-02-21 08:03:00,
2013-02-21 03:08:00,20.0,13.8,29.24,NW,307,6.5,7.7,76,0.00,,,0.00,proprietary,2013-02-21 08:08:00,
2013-02-21 03:14:00,20.0,13.8,29.23,NNW,330,6.6,9.2,76,0.00,,,0.00,proprietary,2013-02-21 08:14:00,
2013-02-21 03:19:00,20.0,13.7,29.23,NW,311,5.3,6.6,76,0.00,,,0.00,proprietary,2013-02-21 08:19:00,
2013-02-21 03:24:00,20.0,13.8,29.23,NW,305,6.1,6.9,76,0.00,,,0.00,proprietary,2013-02-21 08:24:00,
2013-02-21 03:29:00,20.0,13.8,29.23,WNW,298,7.8,11.0,76,0.00,,,0.00,proprietary,2013-02-21 08:29:00,
2013-02-21 03:34:00,20.0,13.8,29.23,WNW,301,5.1,7.1,76,0.00,,,0.00,proprietary,2013-02-21 08:34:00,
2013-02-21 03:39:00,20.0,13.8,29.23,NW,307,6.1,7.4,76,0.00,,,0.00,proprietary,2013-02-21 08:39:00,
2013-02-21 03:44:00,20.0,13.8,29.23,NNW,340,4.8,5.4,76,0.00,,,0.00,proprietary,2013-02-21 08:44:00,
2013-02-21 03:49:00,20.0,13.9,29.23,NW,310,4.0,5.8,76,0.00,,,0.00,proprietary,2013-02-21 08:49:00,
2013-02-21 03:54:00,20.0,13.9,29.23,WNW,296,4.6,6.2,76,0.00,,,0.00,proprietary,2013-02-21 08:54:00,
2013-02-21 03:59:00,20.0,14.0,29.23,NW,308,7.2,9.0,77,0.00,,,0.00,proprietary,2013-02-21 08:59:00,
2013-02-21 04:04:00,19.9,14.0,29.23,NW,311,5.6,6.6,77,0.00,,,0.00,proprietary,2013-02-21 09:04:00,
2013-02-21 04:09:00,19.9,14.1,29.23,WNW,300,5.7,7.6,77,0.00,,,0.00,proprietary,2013-02-21 09:09:00,
2013-02-21 04:14:00,19.9,14.1,29.23,NW,306,4.9,6.0,77,0.00,,,0.00,proprietary,2013-02-21 09:14:00,
2013-02-21 04:19:00,20.0,14.1,29.23,WNW,296,3.8,5.2,77,0.00,,,0.00,proprietary,2013-02-21 09:19:00,
2013-02-21 04:24:00,20.0,14.2,29.23,WNW,300,6.4,8.7,77,0.00,,,0.00,proprietary,2013-02-21 09:24:00,
2013-02-21 04:29:00,20.0,14.2,29.23,WNW,293,4.7,6.5,77,0.00,,,0.00,proprietary,2013-02-21 09:29:00,
2013-02-21 04:34:00,20.0,14.1,29.23,NW,305,6.2,7.8,77,0.00,,,0.00,proprietary,2013-02-21 09:34:00,
2013-02-21 04:39:00,20.0,14.1,29.23,NW,319,6.3,7.4,77,0.00,,,0.00,proprietary,2013-02-21 09:39:00,
2013-02-21 04:44:00,20.1,14.1,29.23,WNW,299,6.8,8.9,77,0.00,,,0.00,proprietary,2013-02-21 09:44:00,
2013-02-21 04:49:00,20.1,14.1,29.23,WNW,297,4.4,5.6,77,0.00,,,0.00,proprietary,2013-02-21 09:49:00,
2013-02-21 04:54:00,20.1,14.1,29.24,WNW,299,6.4,8.3,76,0.00,,,0.00,proprietary,2013-02-21 09:54:00,
2013-02-21 04:59:00,20.2,14.1,29.24,NW,308,6.6,8.9,76,0.00,,,0.00,proprietary,2013-02-21 09:59:00,
2013-02-21 05:04:00,20.2,14.1,29.24,NW,317,4.8,5.8,76,0.00,,,0.00,proprietary,2013-02-21 10:04:00,
2013-02-21 05:09:00,20.3,14.1,29.24,NW,309,5.1,7.1,76,0.00,,,0.00,proprietary,2013-02-21 10:09:00,
2013-02-21 05:14:00,20.3,14.1,29.24,WNW,302,5.2,7.1,76,0.00,,,0.00,proprietary,2013-02-21 10:14:00,
2013-02-21 05:19:00,20.3,14.1,29.25,NW,321,5.9,7.2,76,0.00,,,0.00,proprietary,2013-02-21 10:19:00,
2013-02-21 05:24:00,20.4,14.1,29.25,NW,308,6.1,7.2,76,0.00,,,0.00,proprietary,2013-02-21 10:24:00,
2013-02-21 05:29:00,20.4,14.2,29.25,WNW,299,6.6,8.0,76,0.00,,,0.00,proprietary,2013-02-21 10:29:00,
2013-02-21 05:34:00,20.4,14.2,29.25,NW,310,4.7,6.2,76,0.00,,,0.00,proprietary,2013-02-21 10:34:00,
2013-02-21 05:39:00,20.4,14.3,29.25,NNW,327,6.1,8.2,76,0.00,,,0.00,proprietary,2013-02-21 10:39:00,
2013-02-21 05:44:00,20.4,14.3,29.25,NNW,335,8.4,10.0,76,0.00,,,0.00,proprietary,2013-02-21 10:44:00,
2013-02-21 05:49:00,20.4,14.3,29.25,NW,319,5.0,5.8,76,0.00,,,0.00,proprietary,2013-02-21 10:49:00,
2013-02-21 05:54:00,20.5,14.4,29.25,NW,314,7.5,9.3,76,0.00,,,0.00,proprietary,2013-02-21 10:54:00,
2013-02-21 05:59:00,20.5,14.4,29.25,WNW,297,6.0,7.8,76,0.00,,,0.00,proprietary,2013-02-21 10:59:00,
2013-02-21 06:04:00,20.5,14.4,29.26,NW,311,5.9,7.1,76,0.00,,,0.00,proprietary,2013-02-21 11:04:00,
2013-02-21 06:09:00,20.6,14.6,29.26,NW,311,7.8,8.7,77,0.00,,,0.00,proprietary,2013-02-21 11:09:00,
2013-02-21 06:14:00,20.6,14.6,29.26,NW,314,5.5,7.8,77,0.00,,,0.00,proprietary,2013-02-21 11:14:00,
2013-02-21 06:19:00,20.6,14.6,29.26,NNW,341,4.9,6.1,77,0.00,,,0.00,proprietary,2013-02-21 11:19:00,
2013-02-21 06:24:00,20.6,14.6,29.26,NNW,329,4.3,6.0,77,0.00,,,0.00,proprietary,2013-02-21 11:24:00,
2013-02-21 06:29:00,20.7,14.7,29.26,NW,319,4.1,4.9,77,0.00,,,0.00,proprietary,2013-02-21 11:29:00,
2013-02-21 06:34:00,20.7,14.7,29.26,NNW,333,3.8,4.7,77,0.00,,,0.00,proprietary,2013-02-21 11:34:00,
2013-02-21 06:39:00,20.7,14.8,29.26,NNW,337,3.2,4.2,77,0.00,,,0.00,proprietary,2013-02-21 11:39:00,
2013-02-21 06:44:00,20.7,14.8,29.27,NNW,347,6.0,8.4,77,0.00,,,0.00,proprietary,2013-02-21 11:44:00,
2013-02-21 06:49:00,20.7,14.8,29.27,North,349,7.6,9.4,77,0.00,,,0.00,proprietary,2013-02-21 11:49:00,
2013-02-21 06:54:00,20.7,14.7,29.27,NNW,334,3.2,5.2,77,0.00,,,0.00,proprietary,2013-02-21 11:54:00,
2013-02-21 06:59:00,20.7,14.6,29.27,NNW,336,9.2,11.1,76,0.00,,,0.00,proprietary,2013-02-21 11:59:00,
2013-02-21 07:04:00,20.7,14.6,29.27,NW,316,5.6,6.9,76,0.00,,,0.00,proprietary,2013-02-21 12:04:00,
2013-02-21 07:09:00,20.6,14.5,29.27,NNW,333,4.4,5.8,76,0.00,,,0.00,proprietary,2013-02-21 12:09:00,
2013-02-21 07:14:00,20.6,14.6,29.28,NNW,342,5.6,7.2,76,0.00,,,0.00,proprietary,2013-02-21 12:14:00,
2013-02-21 07:19:00,20.7,14.6,29.28,WNW,302,5.1,6.2,77,0.00,,,0.00,proprietary,2013-02-21 12:19:00,
2013-02-21 07:24:00,20.7,14.7,29.29,NNW,333,5.3,6.4,77,0.00,,,0.00,proprietary,2013-02-21 12:24:00,
2013-02-21 07:29:00,20.6,14.6,29.29,NNW,332,5.2,6.6,77,0.00,,,0.00,proprietary,2013-02-21 12:29:00,
2013-02-21 07:34:00,20.7,14.7,29.29,NNW,327,6.2,8.1,77,0.00,,,0.00,proprietary,2013-02-21 12:34:00,
2013-02-21 07:39:00,20.7,14.7,29.30,WNW,301,7.3,10.1,77,0.00,,,0.00,proprietary,2013-02-21 12:39:00,
2013-02-21 07:44:00,20.7,14.8,29.30,NW,315,6.2,7.8,77,0.00,,,0.00,proprietary,2013-02-21 12:44:00,
2013-02-21 07:49:00,20.8,14.8,29.30,North,355,5.2,8.2,77,0.00,,,0.00,proprietary,2013-02-21 12:49:00,
2013-02-21 07:54:00,20.8,14.9,29.30,NW,322,6.0,6.5,77,0.00,,,0.00,proprietary,2013-02-21 12:54:00,
2013-02-21 07:59:00,20.8,14.9,29.30,NNW,332,4.6,5.4,77,0.00,,,0.00,proprietary,2013-02-21 12:59:00,
2013-02-21 08:04:00,20.8,14.9,29.30,NNW,339,4.5,5.8,77,0.00,,,0.00,proprietary,2013-02-21 13:04:00,
2013-02-21 08:09:00,20.9,15.0,29.30,NNW,333,7.1,11.2,77,0.00,,,0.00,proprietary,2013-02-21 13:09:00,
2013-02-21 08:14:00,21.0,15.1,29.30,NNW,330,6.8,8.7,77,0.00,,,0.00,proprietary,2013-02-21 13:14:00,
2013-02-21 08:19:00,21.0,15.1,29.30,North,4,5.0,6.7,77,0.00,,,0.00,proprietary,2013-02-21 13:19:00,
2013-02-21 08:24:00,21.0,15.1,29.29,North,9,4.2,6.9,77,0.00,,,0.00,proprietary,2013-02-21 13:24:00,
2013-02-21 08:29:00,20.9,14.9,29.29,North,358,8.3,9.8,77,0.00,,,0.00,proprietary,2013-02-21 13:29:00,
2013-02-21 08:34:00,20.9,14.9,29.29,North,357,7.3,9.5,76,0.00,,,0.00,proprietary,2013-02-21 13:34:00,
2013-02-21 08:39:00,21.0,14.9,29.29,NNW,342,7.2,8.9,76,0.00,,,0.00,proprietary,2013-02-21 13:39:00,
2013-02-21 08:44:00,21.1,15.0,29.29,NNW,330,5.0,6.2,76,0.00,,,0.00,proprietary,2013-02-21 13:44:00,
2013-02-21 08:49:00,21.2,15.0,29.30,North,6,6.2,8.0,76,0.00,,,0.00,proprietary,2013-02-21 13:49:00,
2013-02-21 08:54:00,21.1,14.9,29.30,NNW,342,5.2,7.2,76,0.00,,,0.00,proprietary,2013-02-21 13:54:00,
2013-02-21 08:59:00,21.2,15.0,29.30,North,1,7.3,9.8,76,0.00,,,0.00,proprietary,2013-02-21 13:59:00,
2013-02-21 09:04:00,21.3,15.1,29.30,North,355,4.4,5.7,76,0.00,,,0.00,proprietary,2013-02-21 14:04:00,
2013-02-21 09:09:00,21.1,14.8,29.30,North,11,7.6,9.2,76,0.00,,,0.00,proprietary,2013-02-21 14:09:00,
2013-02-21 09:14:00,21.3,15.1,29.30,North,4,6.6,8.4,76,0.00,,,0.00,proprietary,2013-02-21 14:14:00,
2013-02-21 09:19:00,21.2,14.9,29.30,North,7,4.0,5.4,76,0.00,,,0.00,proprietary,2013-02-21 14:19:00,
2013-02-21 09:24:00,21.1,14.7,29.30,North,0,8.7,12.2,75,0.00,,,0.00,proprietary,2013-02-21 14:24:00,
2013-02-21 09:29:00,21.1,14.6,29.30,NNW,342,7.5,10.0,75,0.00,,,0.00,proprietary,2013-02-21 14:29:00,
2013-02-21 09:34:00,21.2,14.7,29.30,North,358,4.7,6.0,75,0.00,,,0.00,proprietary,2013-02-21 14:34:00,
2013-02-21 09:39:00,21.3,14.9,29.30,North,352,3.7,5.3,75,0.00,,,0.00,proprietary,2013-02-21 14:39:00,
2013-02-21 09:44:00,21.4,14.9,29.30,North,4,3.8,4.7,75,0.00,,,0.00,proprietary,2013-02-21 14:44:00,
2013-02-21 09:49:00,21.5,14.8,29.30,North,353,5.7,7.4,75,0.00,,,0.00,proprietary,2013-02-21 14:49:00,
2013-02-21 09:54:00,21.4,14.7,29.30,North,353,4.9,6.5,75,0.00,,,0.00,proprietary,2013-02-21 14:54:00,
2013-02-21 09:59:00,21.3,14.8,29.31,NE,36,2.7,4.2,75,0.00,,,0.00,proprietary,2013-02-21 14:59:00,
2013-02-21 10:04:00,21.4,14.9,29.31,NNE,20,6.7,7.8,75,0.00,,,0.00,proprietary,2013-02-21 15:04:00,
2013-02-21 10:09:00,21.5,14.9,29.30,North,7,4.0,4.7,75,0.00,,,0.00,proprietary,2013-02-21 15:09:00,
2013-02-21 10:14:00,21.6,14.9,29.31,NE,51,3.3,4.3,74,0.00,,,0.00,proprietary,2013-02-21 15:14:00,
2013-02-21 10:19:00,21.7,15.0,29.30,NNE,27,4.6,5.2,74,0.00,,,0.00,proprietary,2013-02-21 15:19:00,
2013-02-21 10:24:00,21.7,14.9,29.31,North,355,5.8,8.9,74,0.00,,,0.00,proprietary,2013-02-21 15:24:00,
2013-02-21 10:29:00,21.6,14.8,29.31,NE,35,4.6,6.4,74,0.00,,,0.00,proprietary,2013-02-21 15:29:00,
2013-02-21 10:34:00,21.8,15.0,29.32,North,10,6.6,8.3,74,0.00,,,0.00,proprietary,2013-02-21 15:34:00,
2013-02-21 10:39:00,21.6,14.9,29.32,NE,35,5.2,8.2,74,0.00,,,0.00,proprietary,2013-02-21 15:39:00,
2013-02-21 10:44:00,21.7,14.8,29.33,NNE,20,7.0,9.1,74,0.00,,,0.00,proprietary,2013-02-21 15:44:00,
2013-02-21 10:49:00,21.7,14.7,29.33,North,10,6.3,7.6,74,0.00,,,0.00,proprietary,2013-02-21 15:49:00,
2013-02-21 10:54:00,21.4,14.4,29.34,North,0,4.1,7.4,73,0.00,,,0.00,proprietary,2013-02-21 15:54:00,
2013-02-21 10:59:00,21.7,14.6,29.33,NW,321,5.7,7.7,73,0.00,,,0.00,proprietary,2013-02-21 15:59:00,
2013-02-21 11:04:00,21.7,15.0,29.33,NW,317,3.1,4.3,74,0.00,,,0.00,proprietary,2013-02-21 16:04:00,
2013-02-21 11:09:00,21.8,14.9,29.33,NNW,346,4.5,7.1,74,0.00,,,0.00,proprietary,2013-02-21 16:09:00,
2013-02-21 11:14:00,21.9,14.9,29.32,North,11,3.3,4.6,74,0.00,,,0.00,proprietary,2013-02-21 16:14:00,
2013-02-21 11:19:00,21.7,14.6,29.32,NNE,20,5.7,7.3,73,0.00,,,0.00,proprietary,2013-02-21 16:19:00,
2013-02-21 11:24:00,21.6,14.6,29.32,North,3,2.7,3.5,74,0.00,,,0.00,proprietary,2013-02-21 16:24:00,
2013-02-21 11:29:00,21.6,14.7,29.33,NNE,16,3.0,5.0,74,0.00,,,0.00,proprietary,2013-02-21 16:29:00,
2013-02-21 11:34:00,21.4,14.2,29.33,North,0,5.6,6.7,73,0.00,,,0.00,proprietary,2013-02-21 16:34:00,
2013-02-21 11:39:00,21.3,14.1,29.33,NNW,342,4.7,5.9,73,0.00,,,0.00,proprietary,2013-02-21 16:39:00,
2013-02-21 11:44:00,21.3,14.0,29.32,NNW,345,5.6,6.6,72,0.00,,,0.00,proprietary,2013-02-21 16:44:00,
2013-02-21 11:49:00,21.4,14.1,29.32,North,353,3.8,4.7,73,0.00,,,0.00,proprietary,2013-02-21 16:49:00,
2013-02-21 11:54:00,21.6,13.9,29.32,North,353,3.4,5.5,71,0.00,,,0.00,proprietary,2013-02-21 16:54:00,
2013-02-21 11:59:00,21.8,14.1,29.32,NNE,30,6.1,7.6,71,0.00,,,0.00,proprietary,2013-02-21 16:59:00,
2013-02-21 12:04:00,21.7,14.0,29.32,North,350,3.6,4.2,71,0.00,,,0.00,proprietary,2013-02-21 17:04:00,
2013-02-21 12:09:00,21.7,14.0,29.32,ENE,65,1.8,2.5,71,0.00,,,0.00,proprietary,2013-02-21 17:09:00,
2013-02-21 12:14:00,21.8,14.1,29.32,ENE,60,2.0,5.6,71,0.00,,,0.00,proprietary,2013-02-21 17:14:00,
2013-02-21 12:19:00,21.7,13.9,29.32,NNE,31,1.9,3.1,71,0.00,,,0.00,proprietary,2013-02-21 17:19:00,
2013-02-21 12:24:00,21.8,14.2,29.32,ENE,70,2.6,4.8,72,0.00,,,0.00,proprietary,2013-02-21 17:24:00,
2013-02-21 12:29:00,21.9,14.1,29.31,East,91,3.2,4.7,71,0.00,,,0.00,proprietary,2013-02-21 17:29:00,
2013-02-21 12:34:00,22.0,13.7,29.30,NNE,33,4.7,6.7,70,0.00,,,0.00,proprietary,2013-02-21 17:34:00,
2013-02-21 12:39:00,22.2,13.8,29.30,NNE,27,2.6,4.2,69,0.00,,,0.00,proprietary,2013-02-21 17:39:00,
2013-02-21 12:44:00,22.3,13.7,29.30,NE,52,3.2,4.5,69,0.00,,,0.00,proprietary,2013-02-21 17:44:00,
2013-02-21 12:49:00,22.5,14.1,29.30,NNE,19,2.8,4.2,69,0.00,,,0.00,proprietary,2013-02-21 17:49:00,
2013-02-21 12:54:00,22.6,14.1,29.30,NNW,343,4.6,5.4,69,0.00,,,0.00,proprietary,2013-02-21 17:54:00,
2013-02-21 12:59:00,22.8,14.4,29.30,NE,51,0.3,2.9,69,0.00,,,0.00,proprietary,2013-02-21 17:59:00,
2013-02-21 13:04:00,22.1,13.4,29.31,East,86,0.7,1.8,68,0.00,,,0.00,proprietary,2013-02-21 18:04:00,
2013-02-21 13:09:00,22.0,13.5,29.32,NE,34,2.8,4.3,69,0.00,,,0.00,proprietary,2013-02-21 18:09:00,
2013-02-21 13:14:00,22.4,14.0,29.32,SE,130,3.6,4.8,69,0.00,,,0.00,proprietary,2013-02-21 18:14:00,
2013-02-21 13:19:00,22.6,14.1,29.33,SE,131,0.5,1.8,69,0.00,,,0.00,proprietary,2013-02-21 18:19:00,
2013-02-21 13:24:00,22.7,14.2,29.33,ENE,74,0.6,1.6,69,0.00,,,0.00,proprietary,2013-02-21 18:24:00,
2013-02-21 13:29:00,23.4,14.7,29.33,SSW,209,1.5,2.1,68,0.00,,,0.00,proprietary,2013-02-21 18:29:00,
2013-02-21 13:34:00,23.5,14.4,29.32,SE,139,1.4,2.0,67,0.00,,,0.00,proprietary,2013-02-21 18:34:00,
2013-02-21 13:39:00,23.8,15.3,29.32,SE,126,1.5,2.4,69,0.00,,,0.00,proprietary,2013-02-21 18:39:00,
2013-02-21 13:44:00,23.6,15.0,29.32,SE,136,2.1,4.1,69,0.00,,,0.00,proprietary,2013-02-21 18:44:00,
2013-02-21 13:49:00,23.2,14.6,29.32,SSE,148,2.5,3.8,69,0.00,,,0.00,proprietary,2013-02-21 18:49:00,
2013-02-21 13:54:00,23.0,14.5,29.31,SE,135,2.3,3.2,69,0.00,,,0.00,proprietary,2013-02-21 18:54:00,
2013-02-21 13:59:00,23.1,14.6,29.30,East,99,2.0,3.8,69,0.00,,,0.00,proprietary,2013-02-21 18:59:00,
2013-02-21 14:04:00,23.0,14.4,29.30,ESE,117,3.4,4.9,69,0.00,,,0.00,proprietary,2013-02-21 19:04:00,
2013-02-21 14:09:00,23.2,14.6,29.29,ESE,112,2.8,4.3,69,0.00,,,0.00,proprietary,2013-02-21 19:09:00,
2013-02-21 14:14:00,23.6,14.6,29.29,ENE,72,3.4,5.8,68,0.00,,,0.00,proprietary,2013-02-21 19:14:00,
2013-02-21 14:19:00,23.5,14.2,29.29,East,100,5.0,5.9,67,0.00,,,0.00,proprietary,2013-02-21 19:19:00,
2013-02-21 14:24:00,23.2,14.9,29.28,ENE,67,4.0,5.4,69,0.00,,,0.00,proprietary,2013-02-21 19:24:00,
2013-02-21 14:29:00,23.6,14.9,29.28,NNE,12,4.0,5.5,68,0.00,,,0.00,proprietary,2013-02-21 19:29:00,
2013-02-21 14:34:00,23.7,14.8,29.29,NNE,20,1.5,2.8,68,0.00,,,0.00,proprietary,2013-02-21 19:34:00,
2013-02-21 14:39:00,23.8,14.6,29.29,NNE,27,2.6,3.3,67,0.00,,,0.00,proprietary,2013-02-21 19:39:00,
2013-02-21 14:44:00,23.7,14.3,29.30,NE,41,3.8,4.8,67,0.00,,,0.00,proprietary,2013-02-21 19:44:00,
2013-02-21 14:49:00,23.2,14.1,29.29,NNE,24,3.8,4.8,67,0.00,,,0.00,proprietary,2013-02-21 19:49:00,
2013-02-21 14:54:00,23.1,13.9,29.29,ENE,62,3.6,4.2,67,0.00,,,0.00,proprietary,2013-02-21 19:54:00,
2013-02-21 14:59:00,23.7,14.6,29.29,ENE,66,4.2,5.2,67,0.00,,,0.00,proprietary,2013-02-21 19:59:00,
2013-02-21 15:04:00,23.9,14.8,29.28,ENE,59,3.7,4.5,67,0.00,,,0.00,proprietary,2013-02-21 20:04:00,
2013-02-21 15:09:00,23.4,13.9,29.28,NE,50,2.8,4.4,66,0.00,,,0.00,proprietary,2013-02-21 20:09:00,
2013-02-21 15:14:00,23.5,14.3,29.28,NE,37,4.1,5.1,67,0.00,,,0.00,proprietary,2013-02-21 20:14:00,
2013-02-21 15:19:00,23.7,14.2,29.26,ENE,59,3.5,4.3,66,0.00,,,0.00,proprietary,2013-02-21 20:19:00,
2013-02-21 15:24:00,24.2,15.4,29.26,ESE,107,4.3,6.1,68,0.00,,,0.00,proprietary,2013-02-21 20:24:00,
2013-02-21 15:30:00,23.7,14.9,29.25,NE,56,4.5,7.1,68,0.00,,,0.00,proprietary,2013-02-21 20:30:00,
2013-02-21 15:35:00,23.8,15.3,29.25,ENE,60,4.4,6.2,69,0.00,,,0.00,proprietary,2013-02-21 20:35:00,
2013-02-21 15:40:00,23.5,15.0,29.25,East,84,3.5,5.2,69,0.00,,,0.00,proprietary,2013-02-21 20:40:00,
2013-02-21 15:45:00,23.3,14.5,29.24,NE,53,7.4,10.8,68,0.00,,,0.00,proprietary,2013-02-21 20:45:00,
2013-02-21 15:50:00,23.5,14.8,29.24,NE,47,3.2,5.1,69,0.00,,,0.00,proprietary,2013-02-21 20:50:00,
2013-02-21 15:55:00,23.4,14.9,29.24,NE,36,3.5,4.8,69,0.00,,,0.00,proprietary,2013-02-21 20:55:00,
2013-02-21 16:00:00,23.0,14.4,29.25,ENE,66,2.9,4.1,68,0.00,,,0.00,proprietary,2013-02-21 21:00:00,
2013-02-21 16:05:00,23.5,14.6,29.25,ENE,76,2.8,4.7,67,0.00,,,0.00,proprietary,2013-02-21 21:05:00,
2013-02-21 16:10:00,23.7,14.7,29.25,NE,55,5.3,6.8,67,0.00,,,0.00,proprietary,2013-02-21 21:10:00,
2013-02-21 16:15:00,23.7,14.6,29.25,East,82,5.4,6.7,67,0.00,,,0.00,proprietary,2013-02-21 21:15:00,
2013-02-21 16:20:00,23.6,14.3,29.26,SE,128,5.1,7.1,67,0.00,,,0.00,proprietary,2013-02-21 21:20:00,
2013-02-21 16:25:00,23.7,14.3,29.27,ENE,59,4.2,6.2,66,0.00,,,0.00,proprietary,2013-02-21 21:25:00,
2013-02-21 16:30:00,23.4,14.1,29.27,East,81,1.2,2.7,66,0.00,,,0.00,proprietary,2013-02-21 21:30:00,
2013-02-21 16:35:00,23.5,13.9,29.28,East,88,1.0,2.2,66,0.00,,,0.00,proprietary,2013-02-21 21:35:00,
2013-02-21 16:40:00,23.7,14.4,29.29,ESE,117,2.7,4.0,66,0.00,,,0.00,proprietary,2013-02-21 21:40:00,
2013-02-21 16:45:00,23.8,14.4,29.29,SE,134,3.4,4.2,67,0.00,,,0.00,proprietary,2013-02-21 21:45:00,
2013-02-21 16:50:00,24.0,15.0,29.29,ESE,112,2.4,4.0,68,0.00,,,0.00,proprietary,2013-02-21 21:50:00,
2013-02-21 16:55:00,23.8,14.5,29.29,SE,131,3.3,5.4,67,0.00,,,0.00,proprietary,2013-02-21 21:55:00,
2013-02-21 17:00:00,23.8,14.2,29.30,ESE,107,2.8,3.6,66,0.00,,,0.00,proprietary,2013-02-21 22:00:00,
2013-02-21 17:05:00,23.7,14.2,29.30,East,85,3.3,4.9,66,0.00,,,0.00,proprietary,2013-02-21 22:05:00,
2013-02-21 17:10:00,23.7,14.2,29.30,East,79,2.2,3.1,66,0.00,,,0.00,proprietary,2013-02-21 22:10:00,
2013-02-21 17:15:00,23.6,14.0,29.30,ESE,111,1.4,1.8,65,0.00,,,0.00,proprietary,2013-02-21 22:15:00,
2013-02-21 17:20:00,23.8,14.3,29.30,East,99,2.6,3.9,66,0.00,,,0.00,proprietary,2013-02-21 22:20:00,
2013-02-21 17:25:00,23.6,13.9,29.30,ENE,77,0.6,1.8,65,0.00,,,0.00,proprietary,2013-02-21 22:25:00,
2013-02-21 17:30:00,23.6,14.2,29.29,ESE,123,3.1,3.7,66,0.00,,,0.00,proprietary,2013-02-21 22:30:00,
2013-02-21 17:35:00,23.5,14.1,29.30,ENE,66,1.2,2.3,66,0.00,,,0.00,proprietary,2013-02-21 22:35:00,
2013-02-21 17:40:00,23.4,13.9,29.30,ESE,117,0.9,2.8,66,0.00,,,0.00,proprietary,2013-02-21 22:40:00,
2013-02-21 17:45:00,23.4,13.9,29.29,ESE,110,3.1,4.8,66,0.00,,,0.00,proprietary,2013-02-21 22:45:00,
2013-02-21 17:50:00,23.4,14.1,29.29,East,91,0.6,1.5,67,0.00,,,0.00,proprietary,2013-02-21 22:50:00,
2013-02-21 17:55:00,23.3,14.0,29.29,East,99,4.1,6.2,66,0.00,,,0.00,proprietary,2013-02-21 22:55:00,
2013-02-21 18:00:00,23.3,14.2,29.28,ENE,75,4.3,6.7,67,0.00,,,0.00,proprietary,2013-02-21 23:00:00,
2013-02-21 18:05:00,23.3,14.2,29.28,ENE,75,3.3,6.2,67,0.00,,,0.00,proprietary,2013-02-21 23:05:00,
2013-02-21 18:10:00,23.1,14.0,29.28,ESE,102,1.8,3.0,67,0.00,,,0.00,proprietary,2013-02-21 23:10:00,
2013-02-21 18:15:00,23.1,13.8,29.29,East,81,3.1,4.6,67,0.00,,,0.00,proprietary,2013-02-21 23:15:00,
2013-02-21 18:20:00,23.0,13.8,29.29,ESE,103,2.0,4.0,67,0.00,,,0.00,proprietary,2013-02-21 23:20:00,
2013-02-21 18:25:00,23.0,13.6,29.30,SE,124,1.9,2.5,66,0.00,,,0.00,proprietary,2013-02-21 23:25:00,
2013-02-21 18:30:00,23.0,13.6,29.30,SE,124,1.7,4.3,66,0.00,,,0.00,proprietary,2013-02-21 23:30:00,
2013-02-21 18:35:00,23.0,13.6,29.30,ENE,77,4.6,7.5,66,0.00,,,0.00,proprietary,2013-02-21 23:35:00,
2013-02-21 18:40:00,23.1,13.3,29.30,East,101,3.2,4.7,65,0.00,,,0.00,proprietary,2013-02-21 23:40:00,
2013-02-21 18:45:00,23.0,13.4,29.30,ESE,116,3.1,4.4,66,0.00,,,0.00,proprietary,2013-02-21 23:45:00,
2013-02-21 18:50:00,23.0,13.2,29.29,East,94,4.5,6.7,65,0.00,,,0.00,proprietary,2013-02-21 23:50:00,
2013-02-21 18:55:00,22.9,13.2,29.29,East,100,3.0,4.1,65,0.00,,,0.00,proprietary,2013-02-21 23:55:00,
2013-02-21 19:00:00,22.9,13.3,29.29,East,96,3.4,5.3,66,0.00,,,0.00,proprietary,2013-02-22 00:00:00,
2013-02-21 19:05:00,22.7,13.3,29.29,ESE,107,2.6,4.1,66,0.00,,,0.00,proprietary,2013-02-22 00:05:00,
2013-02-21 19:10:00,22.6,12.9,29.28,East,94,3.2,4.7,65,0.00,,,0.00,proprietary,2013-02-22 00:10:00,
2013-02-21 19:15:00,22.5,12.8,29.28,East,93,2.9,4.1,65,0.00,,,0.00,proprietary,2013-02-22 00:15:00,
2013-02-21 19:20:00,22.4,12.9,29.28,East,91,3.9,5.7,66,0.00,,,0.00,proprietary,2013-02-22 00:20:00,
2013-02-21 19:25:00,22.3,13.1,29.27,ENE,72,2.7,3.1,67,0.00,,,0.00,proprietary,2013-02-22 00:25:00,
2013-02-21 19:30:00,22.2,12.6,29.27,East,96,4.5,6.1,66,0.00,,,0.00,proprietary,2013-02-22 00:30:00,
2013-02-21 19:35:00,22.1,12.7,29.27,ESE,103,5.5,8.8,66,0.00,,,0.00,proprietary,2013-02-22 00:35:00,
2013-02-21 19:40:00,22.0,12.3,29.27,East,88,1.9,2.7,65,0.00,,,0.00,proprietary,2013-02-22 00:40:00,
2013-02-21 19:45:00,21.9,12.4,29.27,ENE,72,3.5,5.0,66,0.00,,,0.00,proprietary,2013-02-22 00:45:00,
2013-02-21 19:50:00,21.8,12.0,29.27,ENE,78,4.0,6.6,65,0.00,,,0.00,proprietary,2013-02-22 00:50:00,
2013-02-21 19:55:00,21.8,12.2,29.27,East,100,2.8,6.3,66,0.00,,,0.00,proprietary,2013-02-22 00:55:00,
2013-02-21 20:00:00,21.7,12.4,29.28,East,84,2.8,4.2,66,0.00,,,0.00,proprietary,2013-02-22 01:00:00,
2013-02-21 20:05:00,21.7,12.5,29.27,East,90,4.1,7.0,67,0.00,,,0.00,proprietary,2013-02-22 01:05:00,
2013-02-21 20:10:00,21.6,12.4,29.27,East,80,3.8,7.4,67,0.00,,,0.00,proprietary,2013-02-22 01:10:00,
2013-02-21 20:15:00,21.5,12.6,29.26,East,89,3.9,6.6,68,0.00,,,0.00,proprietary,2013-02-22 01:15:00,
2013-02-21 20:20:00,21.4,12.7,29.26,ESE,102,3.2,5.1,68,0.00,,,0.00,proprietary,2013-02-22 01:20:00,
2013-02-21 20:25:00,21.1,13.0,29.25,East,89,5.0,6.7,70,0.00,,,0.00,proprietary,2013-02-22 01:25:00,
2013-02-21 20:30:00,20.9,12.9,29.25,East,86,6.1,8.7,70,0.00,,,0.00,proprietary,2013-02-22 01:30:00,
2013-02-21 20:36:00,20.8,12.9,29.25,East,79,5.2,7.5,71,0.00,,,0.00,proprietary,2013-02-22 01:36:00,
2013-02-21 20:41:00,20.7,12.8,29.26,East,87,5.4,8.2,70,0.00,,,0.00,proprietary,2013-02-22 01:41:00,
2013-02-21 20:46:00,20.7,12.9,29.26,ESE,103,3.5,6.4,71,0.00,,,0.00,proprietary,2013-02-22 01:46:00,
2013-02-21 20:51:00,20.6,12.8,29.26,SE,124,2.1,4.6,71,0.00,,,0.00,proprietary,2013-02-22 01:51:00,
2013-02-21 20:56:00,20.5,12.9,29.26,ESE,116,3.3,4.7,71,0.00,,,0.00,proprietary,2013-02-22 01:56:00,
2013-02-21 21:01:00,20.4,12.9,29.26,East,100,5.0,8.3,72,0.00,,,0.00,proprietary,2013-02-22 02:01:00,
2013-02-21 21:06:00,20.3,12.9,29.26,ESE,115,2.7,6.0,72,0.00,,,0.00,proprietary,2013-02-22 02:06:00,
2013-02-21 21:11:00,20.2,12.8,29.26,ESE,118,4.1,6.4,72,0.00,,,0.00,proprietary,2013-02-22 02:11:00,
2013-02-21 21:16:00,20.1,12.8,29.25,ESE,112,4.5,9.7,72,0.00,,,0.00,proprietary,2013-02-22 02:16:00,
2013-02-21 21:21:00,20.1,12.9,29.25,ESE,106,2.7,3.7,73,0.00,,,0.00,proprietary,2013-02-22 02:21:00,
2013-02-21 21:26:00,20.1,13.0,29.26,ESE,108,3.1,4.8,73,0.00,,,0.00,proprietary,2013-02-22 02:26:00,
2013-02-21 21:31:00,20.1,13.2,29.25,East,93,3.7,6.0,74,0.00,,,0.00,proprietary,2013-02-22 02:31:00,
2013-02-21 21:36:00,20.1,13.2,29.25,East,93,3.0,4.0,74,0.00,,,0.00,proprietary,2013-02-22 02:36:00,
2013-02-21 21:41:00,20.2,13.4,29.25,East,92,3.4,5.9,74,0.00,,,0.00,proprietary,2013-02-22 02:41:00,
2013-02-21 21:46:00,20.2,13.4,29.26,East,88,3.6,5.9,74,0.00,,,0.00,proprietary,2013-02-22 02:46:00,
2013-02-21 21:51:00,20.2,13.5,29.26,East,88,1.9,3.3,74,0.00,,,0.00,proprietary,2013-02-22 02:51:00,
2013-02-21 21:56:00,20.2,13.6,29.26,ESE,105,2.5,3.6,74,0.00,,,0.00,proprietary,2013-02-22 02:56:00,
2013-02-21 22:01:00,20.2,13.7,29.26,ESE,111,3.9,6.6,75,0.00,,,0.00,proprietary,2013-02-22 03:01:00,
2013-02-21 22:06:00,20.3,13.8,29.25,ESE,104,4.6,6.1,75,0.00,,,0.00,proprietary,2013-02-22 03:06:00,
2013-02-21 22:11:00,20.2,13.8,29.25,ENE,65,2.8,4.0,75,0.00,,,0.00,proprietary,2013-02-22 03:11:00,
2013-02-21 22:16:00,20.3,13.9,29.24,ESE,108,4.3,6.1,75,0.00,,,0.00,proprietary,2013-02-22 03:16:00,
2013-02-21 22:21:00,20.2,14.0,29.24,East,88,4.5,6.1,76,0.00,,,0.00,proprietary,2013-02-22 03:21:00,
2013-02-21 22:26:00,20.3,14.1,29.24,East,94,3.7,9.4,76,0.00,,,0.00,proprietary,2013-02-22 03:26:00,
2013-02-21 22:31:00,20.2,14.1,29.24,ESE,114,4.8,7.8,76,0.00,,,0.00,proprietary,2013-02-22 03:31:00,
2013-02-21 22:36:00,20.2,14.1,29.24,East,93,4.5,6.2,76,0.00,,,0.00,proprietary,2013-02-22 03:36:00,
2013-02-21 22:41:00,20.2,14.2,29.23,East,88,5.1,6.8,76,0.00,,,0.00,proprietary,2013-02-22 03:41:00,
2013-02-21 22:46:00,20.3,14.4,29.24,East,86,5.0,8.2,77,0.00,,,0.00,proprietary,2013-02-22 03:46:00,
2013-02-21 22:51:00,20.4,14.4,29.24,East,101,3.8,7.4,77,0.00,,,0.00,proprietary,2013-02-22 03:51:00,
2013-02-21 22:56:00,20.4,14.6,29.24,East,94,1.6,3.6,77,0.00,,,0.00,proprietary,2013-02-22 03:56:00,
2013-02-21 23:01:00,20.4,14.6,29.23,East,101,4.5,7.5,77,0.00,,,0.00,proprietary,2013-02-22 04:01:00,
2013-02-21 23:06:00,20.5,14.8,29.24,East,89,5.5,7.2,78,0.00,,,0.00,proprietary,2013-02-22 04:06:00,
2013-02-21 23:11:00,20.5,14.8,29.24,East,89,6.1,11.5,78,0.00,,,0.00,proprietary,2013-02-22 04:11:00,
2013-02-21 23:16:00,20.5,14.9,29.24,East,91,3.2,6.4,78,0.00,,,0.00,proprietary,2013-02-22 04:16:00,
2013-02-21 23:22:00,20.5,15.0,29.24,ESE,103,5.6,10.0,78,0.00,,,0.00,proprietary,2013-02-22 04:22:00,
2013-02-21 23:27:00,20.5,15.1,29.24,East,100,4.8,6.7,79,0.00,,,0.00,proprietary,2013-02-22 04:27:00,
2013-02-21 23:32:00,20.6,15.2,29.23,East,86,2.8,4.0,79,0.00,,,0.00,proprietary,2013-02-22 04:32:00,
2013-02-21 23:37:00,20.5,15.1,29.23,East,86,4.4,8.3,79,0.00,,,0.00,proprietary,2013-02-22 04:37:00,
2013-02-21 23:42:00,20.5,15.2,29.23,East,88,4.5,7.1,79,0.00,,,0.00,proprietary,2013-02-22 04:42:00,
2013-02-21 23:47:00,20.5,15.4,29.22,East,86,3.3,5.6,80,0.00,,,0.00,proprietary,2013-02-22 04:47:00,
2013-02-21 23:52:00,20.5,15.3,29.21,East,89,8.8,11.4,80,0.00,,,0.00,proprietary,2013-02-22 04:52:00,
2013-02-21 23:58:00,20.5,15.4,29.20,East,89,5.2,7.9,80,0.00,,,0.00,proprietary,2013-02-22 04:58:00,